* Astronomy

Members Login
Username 
 
Password 
    Remember Me  
Post Info TOPIC: Asteroid 2012 DK61


L

Posts: 131433
Date:
RE: Asteroid 2012 DK61
Permalink  
 


Orbital elements:
2012 DK61                                                Earth MOID = 0.0680 AU
Epoch 2012 Mar. 14.0 TT = JDT 2456000.5                 MPC
M 274.06640              (2000.0)            P               Q
n   0.71120053     Peri.  301.25948     +0.13205659     +0.99026353
a   1.2430101      Node   336.20987     -0.86828804     +0.09413192
e   0.1654799      Incl.    6.26725     -0.47815995     +0.10255397
P   1.39           H   21.0           G   0.15           U   2

MPEC 2012 - J22



__________________


L

Posts: 131433
Date:
Permalink  
 

Orbital elements:
2012 DK61                                                Earth MOID = 0.0676 AU
Epoch 2012 Mar. 14.0 TT = JDT 2456000.5                 MPC
M 274.25762              (2000.0)            P               Q
n   0.70990813     Peri.  301.25141     +0.13257441     +0.99018309
a   1.2445183      Node   336.24630     -0.86789549     +0.09438794
e   0.1674077      Incl.    6.31244     -0.47872899     +0.10309396
P   1.39           H   20.9           G   0.15           U   8

MPEC 2012 - E15



__________________
Page 1 of 1  sorted by
 
Quick Reply

Please log in to post quick replies.



Create your own FREE Forum
Report Abuse
Powered by ActiveBoard